Year,Month,Day,Hour,Minute,Value (Times are PST for temperature in C)
2010,08,28,00,00,10.20
2010,08,28,00,01,10.20
2010,08,28,00,02,10.10
2010,08,28,00,03,10.10
2010,08,28,00,04,10.10
2010,08,28,00,05,10.00
2010,08,28,00,06,10.00
2010,08,28,00,07,10.00
2010,08,28,00,08,10.00
2010,08,28,00,09,10.00
2010,08,28,00,10,10.00
2010,08,28,00,11,10.00
2010,08,28,00,12,10.00
2010,08,28,00,13,10.00
2010,08,28,00,14,10.00
2010,08,28,00,15,10.00
2010,08,28,00,16,10.10
2010,08,28,00,17,10.00
2010,08,28,00,18,10.10
2010,08,28,00,19,10.00
2010,08,28,00,20,10.00
2010,08,28,00,21,9.90
2010,08,28,00,22,9.90
2010,08,28,00,23,9.90
2010,08,28,00,24,9.80
2010,08,28,00,25,9.80
2010,08,28,00,26,9.80
2010,08,28,00,27,9.80
2010,08,28,00,28,9.70
2010,08,28,00,29,9.70
2010,08,28,00,30,9.70
2010,08,28,00,31,9.70
2010,08,28,00,32,9.70
2010,08,28,00,33,9.70
2010,08,28,00,34,9.70
2010,08,28,00,35,9.70
2010,08,28,00,36,9.70
2010,08,28,00,37,9.60
2010,08,28,00,38,9.60
2010,08,28,00,39,9.60
2010,08,28,00,40,9.60
2010,08,28,00,41,9.50
2010,08,28,00,42,9.50
2010,08,28,00,43,9.40
2010,08,28,00,44,9.40
2010,08,28,00,45,9.40
2010,08,28,00,46,9.30
2010,08,28,00,47,9.30
2010,08,28,00,48,9.30
2010,08,28,00,49,9.30
2010,08,28,00,50,9.30
2010,08,28,00,51,9.30
2010,08,28,00,52,9.30
2010,08,28,00,53,9.20
2010,08,28,00,54,9.20
2010,08,28,00,55,9.20
2010,08,28,00,56,9.20
2010,08,28,00,57,9.20
2010,08,28,00,58,9.20
2010,08,28,00,59,9.20
2010,08,28,01,00,9.10
2010,08,28,01,01,9.10
2010,08,28,01,02,9.10
2010,08,28,01,03,9.10
2010,08,28,01,04,9.10
2010,08,28,01,05,9.10
2010,08,28,01,06,9.10
2010,08,28,01,07,9.10
2010,08,28,01,08,9.00
2010,08,28,01,09,9.00
2010,08,28,01,10,9.00
2010,08,28,01,11,8.90
2010,08,28,01,12,8.90
2010,08,28,01,13,8.90
2010,08,28,01,14,8.90
2010,08,28,01,15,8.90
2010,08,28,01,16,8.90
2010,08,28,01,17,8.90
2010,08,28,01,18,8.90
2010,08,28,01,19,8.90
2010,08,28,01,20,8.90
2010,08,28,01,21,8.90
2010,08,28,01,22,8.90
2010,08,28,01,23,8.90
2010,08,28,01,24,8.90
2010,08,28,01,25,8.90
2010,08,28,01,26,8.90
2010,08,28,01,27,9.00
2010,08,28,01,28,9.00
2010,08,28,01,29,9.00
2010,08,28,01,30,9.00
2010,08,28,01,31,9.00
2010,08,28,01,32,9.00
2010,08,28,01,33,9.00
2010,08,28,01,34,9.10
2010,08,28,01,35,9.10
2010,08,28,01,36,9.00
2010,08,28,01,37,9.10
2010,08,28,01,38,9.00
2010,08,28,01,39,9.00
2010,08,28,01,40,9.00
2010,08,28,01,41,9.00
2010,08,28,01,42,9.00
2010,08,28,01,43,8.90
2010,08,28,01,44,8.90
2010,08,28,01,45,8.90
2010,08,28,01,46,8.90
2010,08,28,01,47,8.80
2010,08,28,01,48,8.80
2010,08,28,01,49,8.80
2010,08,28,01,50,8.80
2010,08,28,01,51,8.80
2010,08,28,01,52,8.80
2010,08,28,01,53,8.70
2010,08,28,01,54,8.70
2010,08,28,01,55,8.70
2010,08,28,01,56,8.70
2010,08,28,01,57,8.60
2010,08,28,01,58,8.60
2010,08,28,01,59,8.60
2010,08,28,02,00,8.50
2010,08,28,02,01,8.50
2010,08,28,02,02,8.50
2010,08,28,02,03,8.50
2010,08,28,02,04,8.50
2010,08,28,02,05,8.50
2010,08,28,02,06,8.50
2010,08,28,02,07,8.50
2010,08,28,02,08,8.50
2010,08,28,02,09,8.50
2010,08,28,02,10,8.50
2010,08,28,02,11,8.50
2010,08,28,02,12,8.50
2010,08,28,02,13,8.50
2010,08,28,02,14,8.50
2010,08,28,02,15,8.50
2010,08,28,02,16,8.40
2010,08,28,02,17,8.40
2010,08,28,02,18,8.40
2010,08,28,02,19,8.40
2010,08,28,02,20,8.40
2010,08,28,02,21,8.40
2010,08,28,02,22,8.40
2010,08,28,02,23,8.40
2010,08,28,02,24,8.40
2010,08,28,02,25,8.40
2010,08,28,02,26,8.50
2010,08,28,02,27,8.50
2010,08,28,02,28,8.50
2010,08,28,02,29,8.50
2010,08,28,02,30,8.40
2010,08,28,02,31,8.40
2010,08,28,02,32,8.40
2010,08,28,02,33,8.40
2010,08,28,02,34,8.40
2010,08,28,02,35,8.40
2010,08,28,02,36,8.40
2010,08,28,02,37,8.40
2010,08,28,02,38,8.40
2010,08,28,02,39,8.40
2010,08,28,02,40,8.40
2010,08,28,02,41,8.40
2010,08,28,02,42,8.30
2010,08,28,02,43,8.30
2010,08,28,02,44,8.30
2010,08,28,02,45,8.30
2010,08,28,02,46,8.30
2010,08,28,02,47,8.30
2010,08,28,02,48,8.30
2010,08,28,02,49,8.30
2010,08,28,02,50,8.30
2010,08,28,02,51,8.20
2010,08,28,02,52,8.20
2010,08,28,02,53,8.20
2010,08,28,02,54,8.20
2010,08,28,02,55,8.10
2010,08,28,02,56,8.10
2010,08,28,02,57,8.10
2010,08,28,02,58,8.10
2010,08,28,02,59,8.10
2010,08,28,03,00,8.10
2010,08,28,03,01,8.10
2010,08,28,03,02,8.10
2010,08,28,03,04,8.00
2010,08,28,03,05,8.00
2010,08,28,03,06,8.00
2010,08,28,03,07,7.90
2010,08,28,03,08,7.90
2010,08,28,03,09,7.90
2010,08,28,03,10,7.90
2010,08,28,03,11,7.90
2010,08,28,03,12,7.80
2010,08,28,03,13,7.80
2010,08,28,03,14,7.80
2010,08,28,03,15,7.80
2010,08,28,03,16,7.80
2010,08,28,03,17,7.70
2010,08,28,03,18,7.70
2010,08,28,03,19,7.70
2010,08,28,03,20,7.70
2010,08,28,03,21,7.70
2010,08,28,03,22,7.70
2010,08,28,03,23,7.70
2010,08,28,03,24,7.70
2010,08,28,03,25,7.70
2010,08,28,03,26,7.70
2010,08,28,03,27,7.70
2010,08,28,03,28,7.70
2010,08,28,03,29,7.70
2010,08,28,03,30,7.70
2010,08,28,03,31,7.70
2010,08,28,03,32,7.70
2010,08,28,03,33,7.70
2010,08,28,03,34,7.70
2010,08,28,03,35,7.60
2010,08,28,03,36,7.60
2010,08,28,03,37,7.60
2010,08,28,03,38,7.60
2010,08,28,03,39,7.60
2010,08,28,03,40,7.70
2010,08,28,03,41,7.70
2010,08,28,03,42,7.70
2010,08,28,03,43,7.70
2010,08,28,03,44,7.70
2010,08,28,03,45,7.60
2010,08,28,03,46,7.60
2010,08,28,03,47,7.60
2010,08,28,03,48,7.60
2010,08,28,03,49,7.50
2010,08,28,03,50,7.50
2010,08,28,03,51,7.40
2010,08,28,03,52,7.40
2010,08,28,03,53,7.30
2010,08,28,03,54,7.30
2010,08,28,03,55,7.30
2010,08,28,03,56,7.30
2010,08,28,03,57,7.20
2010,08,28,03,58,7.20
2010,08,28,03,59,7.20
2010,08,28,04,00,7.20
2010,08,28,04,01,7.20
2010,08,28,04,02,7.20
2010,08,28,04,03,7.20
2010,08,28,04,04,7.20
2010,08,28,04,05,7.20
2010,08,28,04,06,7.20
2010,08,28,04,07,7.20
2010,08,28,04,08,7.20
2010,08,28,04,09,7.20
2010,08,28,04,10,7.20
2010,08,28,04,11,7.20
2010,08,28,04,12,7.20
2010,08,28,04,13,7.20
2010,08,28,04,14,7.20
2010,08,28,04,15,7.20
2010,08,28,04,16,7.20
2010,08,28,04,17,7.20
2010,08,28,04,18,7.20
2010,08,28,04,19,7.20
2010,08,28,04,20,7.20
2010,08,28,04,21,7.20
2010,08,28,04,22,7.20
2010,08,28,04,23,7.20
2010,08,28,04,24,7.30
2010,08,28,04,25,7.30
2010,08,28,04,26,7.30
2010,08,28,04,27,7.30
2010,08,28,04,28,7.30
2010,08,28,04,29,7.30
2010,08,28,04,30,7.30
2010,08,28,04,31,7.30
2010,08,28,04,32,7.30
2010,08,28,04,33,7.30
2010,08,28,04,34,7.30
2010,08,28,04,35,7.30
2010,08,28,04,36,7.30
2010,08,28,04,37,7.40
2010,08,28,04,38,7.30
2010,08,28,04,39,7.30
2010,08,28,04,40,7.30
2010,08,28,04,41,7.30
2010,08,28,04,42,7.30
2010,08,28,04,43,7.30
2010,08,28,04,44,7.30
2010,08,28,04,45,7.30
2010,08,28,04,46,7.20
2010,08,28,04,47,7.20
2010,08,28,04,48,7.20
2010,08,28,04,49,7.20
2010,08,28,04,50,7.20
2010,08,28,04,51,7.10
2010,08,28,04,52,7.10
2010,08,28,04,53,7.10
2010,08,28,04,54,7.10
2010,08,28,04,55,7.00
2010,08,28,04,56,7.00
2010,08,28,04,57,7.00
2010,08,28,04,58,7.00
2010,08,28,04,59,6.90
2010,08,28,05,00,6.90
2010,08,28,05,01,6.90
2010,08,28,05,02,6.90
2010,08,28,05,03,6.90
2010,08,28,05,04,6.90
2010,08,28,05,05,6.90
2010,08,28,05,06,6.90
2010,08,28,05,07,7.00
2010,08,28,05,08,7.00
2010,08,28,05,09,7.00
2010,08,28,05,10,7.00
2010,08,28,05,11,7.10
2010,08,28,05,12,7.10
2010,08,28,05,13,7.10
2010,08,28,05,14,7.20
2010,08,28,05,15,7.20
2010,08,28,05,16,7.20
2010,08,28,05,17,7.20
2010,08,28,05,18,7.20
2010,08,28,05,19,7.20
2010,08,28,05,20,7.20
2010,08,28,05,21,7.20
2010,08,28,05,22,7.20
2010,08,28,05,23,7.20
2010,08,28,05,24,7.20
2010,08,28,05,25,7.20
2010,08,28,05,26,7.10
2010,08,28,05,27,7.10
2010,08,28,05,28,7.10
2010,08,28,05,29,7.10
2010,08,28,05,30,7.00
2010,08,28,05,31,6.90
2010,08,28,05,32,6.90
2010,08,28,05,33,6.90
2010,08,28,05,34,6.80
2010,08,28,05,35,6.80
2010,08,28,05,36,6.80
2010,08,28,05,37,6.70
2010,08,28,05,38,6.70
2010,08,28,05,39,6.70
2010,08,28,05,40,6.70
2010,08,28,05,41,6.70
2010,08,28,05,42,6.60
2010,08,28,05,43,6.60
2010,08,28,05,44,6.50
2010,08,28,05,45,6.50
2010,08,28,05,46,6.50
2010,08,28,05,47,6.40
2010,08,28,05,48,6.40
2010,08,28,05,49,6.40
2010,08,28,05,50,6.40
2010,08,28,05,51,6.40
2010,08,28,05,52,6.40
2010,08,28,05,53,6.40
2010,08,28,05,54,6.40
2010,08,28,05,55,6.40
2010,08,28,05,56,6.40
2010,08,28,05,57,6.40
2010,08,28,05,58,6.40
2010,08,28,05,59,6.40
2010,08,28,06,00,6.40
2010,08,28,06,01,6.40
2010,08,28,06,02,6.40
2010,08,28,06,03,6.40
2010,08,28,06,04,6.40
2010,08,28,06,05,6.40
2010,08,28,06,06,6.40
2010,08,28,06,07,6.40
2010,08,28,06,08,6.40
2010,08,28,06,09,6.40
2010,08,28,06,10,6.40
2010,08,28,06,11,6.40
2010,08,28,06,12,6.40
2010,08,28,06,13,6.40
2010,08,28,06,14,6.40
2010,08,28,06,15,6.50
2010,08,28,06,16,6.50
2010,08,28,06,17,6.50
2010,08,28,06,18,6.50
2010,08,28,06,19,6.50
2010,08,28,06,20,6.50
2010,08,28,06,21,6.50
2010,08,28,06,22,6.50
2010,08,28,06,23,6.50
2010,08,28,06,24,6.40
2010,08,28,06,25,6.40
2010,08,28,06,26,6.40
2010,08,28,06,27,6.40
2010,08,28,06,28,6.40
2010,08,28,06,29,6.40
2010,08,28,06,30,6.40
2010,08,28,06,31,6.40
2010,08,28,06,32,6.40
2010,08,28,06,33,6.40
2010,08,28,06,34,6.40
2010,08,28,06,35,6.40
2010,08,28,06,36,6.40
2010,08,28,06,37,6.30
2010,08,28,06,38,6.30
2010,08,28,06,39,6.30
2010,08,28,06,40,6.30
2010,08,28,06,41,6.30
2010,08,28,06,42,6.30
2010,08,28,06,43,6.30
2010,08,28,06,44,6.30
2010,08,28,06,45,6.30
2010,08,28,06,46,6.30
2010,08,28,06,47,6.30
2010,08,28,06,48,6.30
2010,08,28,06,49,6.30
2010,08,28,06,50,6.20
2010,08,28,06,51,6.20
2010,08,28,06,52,6.20
2010,08,28,06,53,6.30
2010,08,28,06,54,6.30
2010,08,28,06,55,6.30
2010,08,28,06,56,6.30
2010,08,28,06,57,6.30
2010,08,28,06,58,6.30
2010,08,28,06,59,6.30
2010,08,28,07,00,6.30
2010,08,28,07,01,6.30
2010,08,28,07,02,6.30
2010,08,28,07,03,6.30
2010,08,28,07,04,6.30
2010,08,28,07,05,6.30
2010,08,28,07,06,6.30
2010,08,28,07,07,6.30
2010,08,28,07,08,6.30
2010,08,28,07,09,6.30
2010,08,28,07,10,6.30
2010,08,28,07,11,6.30
2010,08,28,07,12,6.30
2010,08,28,07,13,6.30
2010,08,28,07,14,6.20
2010,08,28,07,15,6.20
2010,08,28,07,16,6.20
2010,08,28,07,17,6.20
2010,08,28,07,18,6.20
2010,08,28,07,19,6.30
2010,08,28,07,20,6.20
2010,08,28,07,21,6.30
2010,08,28,07,22,6.30
2010,08,28,07,23,6.30
2010,08,28,07,24,6.30
2010,08,28,07,25,6.30
2010,08,28,07,26,6.30
2010,08,28,07,27,6.40
2010,08,28,07,28,6.40
2010,08,28,07,29,6.40
2010,08,28,07,30,6.40
2010,08,28,07,31,6.40
2010,08,28,07,32,6.50
2010,08,28,07,33,6.50
2010,08,28,07,34,6.50
2010,08,28,07,35,6.50
2010,08,28,07,36,6.50
2010,08,28,07,37,6.50
2010,08,28,07,38,6.50
2010,08,28,07,39,6.50
2010,08,28,07,40,6.50
2010,08,28,07,41,6.50
2010,08,28,07,42,6.50
2010,08,28,07,43,6.50
2010,08,28,07,44,6.50
2010,08,28,07,45,6.50
2010,08,28,07,46,6.60
2010,08,28,07,47,6.60
2010,08,28,07,48,6.60
2010,08,28,07,49,6.70
2010,08,28,07,50,6.70
2010,08,28,07,51,6.80
2010,08,28,07,52,6.80
2010,08,28,07,53,6.80
2010,08,28,07,54,6.90
2010,08,28,07,55,6.90
2010,08,28,07,56,6.90
2010,08,28,07,57,6.90
2010,08,28,07,58,6.90
2010,08,28,07,59,7.00
2010,08,28,08,00,7.00
2010,08,28,08,01,7.10
2010,08,28,08,02,7.10
2010,08,28,08,03,7.10
2010,08,28,08,04,7.10
2010,08,28,08,05,7.10
2010,08,28,08,06,7.10
2010,08,28,08,07,7.20
2010,08,28,08,08,7.20
2010,08,28,08,09,7.30
2010,08,28,08,10,7.30
2010,08,28,08,11,7.30
2010,08,28,08,12,7.40
2010,08,28,08,13,7.50
2010,08,28,08,14,7.50
2010,08,28,08,15,7.60
2010,08,28,08,16,7.70
2010,08,28,08,17,7.70
2010,08,28,08,18,7.80
2010,08,28,08,19,7.80
2010,08,28,08,20,7.90
2010,08,28,08,21,8.00
2010,08,28,08,22,8.10
2010,08,28,08,23,8.10
2010,08,28,08,24,8.20
2010,08,28,08,25,8.30
2010,08,28,08,26,8.30
2010,08,28,08,27,8.40
2010,08,28,08,28,8.50
2010,08,28,08,29,8.60
2010,08,28,08,30,8.70
2010,08,28,08,31,8.80
2010,08,28,08,32,8.90
2010,08,28,08,33,9.00
2010,08,28,08,34,9.20
2010,08,28,08,35,9.30
2010,08,28,08,36,9.40
2010,08,28,08,37,9.60
2010,08,28,08,38,9.70
2010,08,28,08,39,9.90
2010,08,28,08,40,10.10
2010,08,28,08,41,10.20
2010,08,28,08,42,10.40
2010,08,28,08,43,10.60
2010,08,28,08,44,10.80
2010,08,28,08,45,10.90
2010,08,28,08,46,11.10
2010,08,28,08,47,11.20
2010,08,28,08,48,11.40
2010,08,28,08,49,11.60
2010,08,28,08,50,11.70
2010,08,28,08,51,11.90
2010,08,28,08,52,12.10
2010,08,28,08,53,12.30
2010,08,28,08,54,12.50
2010,08,28,08,55,12.60
2010,08,28,08,56,12.80
2010,08,28,08,57,12.90
2010,08,28,08,58,13.00
2010,08,28,08,59,13.10
2010,08,28,09,00,13.20
2010,08,28,09,01,13.20
2010,08,28,09,02,13.30
2010,08,28,09,03,13.30
2010,08,28,09,04,13.30
2010,08,28,09,05,13.40
2010,08,28,09,06,13.40
2010,08,28,09,07,13.50
2010,08,28,09,08,13.60
2010,08,28,09,09,13.60
2010,08,28,09,10,13.60
2010,08,28,09,11,13.70
2010,08,28,09,12,13.70
2010,08,28,09,13,13.70
2010,08,28,09,14,13.80
2010,08,28,09,15,13.80
2010,08,28,09,16,13.80
2010,08,28,09,17,13.90
2010,08,28,09,18,13.90
2010,08,28,09,19,14.00
2010,08,28,09,20,14.00
2010,08,28,09,21,14.10
2010,08,28,09,22,14.10
2010,08,28,09,23,14.20
2010,08,28,09,24,14.20
2010,08,28,09,25,14.30
2010,08,28,09,26,14.30
2010,08,28,09,27,14.40
2010,08,28,09,28,14.50
2010,08,28,09,29,14.60
2010,08,28,09,30,14.60
2010,08,28,09,31,14.70
2010,08,28,09,32,14.70
2010,08,28,09,33,14.80
2010,08,28,09,34,14.90
2010,08,28,09,35,14.90
2010,08,28,09,36,15.00
2010,08,28,09,37,15.10
2010,08,28,09,38,15.20
2010,08,28,09,39,15.30
2010,08,28,09,40,15.30
2010,08,28,09,41,15.30
2010,08,28,09,42,15.20
2010,08,28,09,43,15.10
2010,08,28,09,44,15.10
2010,08,28,09,45,15.10
2010,08,28,09,46,15.10
2010,08,28,09,47,15.20
2010,08,28,09,48,15.20
2010,08,28,09,49,15.30
2010,08,28,09,50,15.30
2010,08,28,09,51,15.40
2010,08,28,09,52,15.50
2010,08,28,09,53,15.50
2010,08,28,09,54,15.60
2010,08,28,09,55,15.70
2010,08,28,09,56,15.70
2010,08,28,09,57,15.70
2010,08,28,09,58,15.70
2010,08,28,09,59,15.80
2010,08,28,10,00,15.80
2010,08,28,10,01,15.80
2010,08,28,10,02,15.80
2010,08,28,10,03,15.90
2010,08,28,10,04,15.90
2010,08,28,10,05,15.90
2010,08,28,10,06,15.90
2010,08,28,10,07,15.90
2010,08,28,10,08,16.00
2010,08,28,10,09,16.00
2010,08,28,10,10,16.10
2010,08,28,10,11,16.10
2010,08,28,10,12,16.20
2010,08,28,10,13,16.20
2010,08,28,10,14,16.30
2010,08,28,10,15,16.30
2010,08,28,10,16,16.30
2010,08,28,10,17,16.30
2010,08,28,10,18,16.40
2010,08,28,10,19,16.40
2010,08,28,10,20,16.40
2010,08,28,10,21,16.40
2010,08,28,10,22,16.40
2010,08,28,10,23,16.50
2010,08,28,10,24,16.60
2010,08,28,10,25,16.60
2010,08,28,10,26,16.60
2010,08,28,10,27,16.60
2010,08,28,10,28,16.70
2010,08,28,10,29,16.70
2010,08,28,10,30,16.60
2010,08,28,10,31,16.50
2010,08,28,10,32,16.30
2010,08,28,10,33,16.30
2010,08,28,10,34,16.30
2010,08,28,10,35,16.30
2010,08,28,10,36,16.40
2010,08,28,10,37,16.50
2010,08,28,10,38,16.60
2010,08,28,10,39,16.70
2010,08,28,10,40,16.60
2010,08,28,10,41,16.60
2010,08,28,10,42,16.60
2010,08,28,10,43,16.70
2010,08,28,10,44,16.70
2010,08,28,10,45,16.70
2010,08,28,10,46,16.70
2010,08,28,10,47,16.80
2010,08,28,10,48,16.80
2010,08,28,10,49,16.90
2010,08,28,10,50,16.90
2010,08,28,10,51,16.90
2010,08,28,10,52,16.90
2010,08,28,10,53,17.00
2010,08,28,10,54,17.00
2010,08,28,10,55,17.00
2010,08,28,10,56,17.10
2010,08,28,10,57,17.10
2010,08,28,10,58,17.20
2010,08,28,10,59,17.20
2010,08,28,11,00,17.10
2010,08,28,11,01,17.00
2010,08,28,11,02,17.00
2010,08,28,11,03,16.90
2010,08,28,11,04,16.90
2010,08,28,11,05,16.90
2010,08,28,11,06,16.90
2010,08,28,11,07,17.00
2010,08,28,11,08,17.00
2010,08,28,11,09,17.00
2010,08,28,11,10,17.00
2010,08,28,11,11,17.20
2010,08,28,11,12,17.30
2010,08,28,11,13,17.30
2010,08,28,11,14,17.30
2010,08,28,11,15,17.30
2010,08,28,11,16,17.20
2010,08,28,11,17,17.30
2010,08,28,11,18,17.30
2010,08,28,11,19,17.30
2010,08,28,11,20,17.30
2010,08,28,11,21,17.30
2010,08,28,11,22,17.30
2010,08,28,11,23,17.30
2010,08,28,11,24,17.30
2010,08,28,11,25,17.30
2010,08,28,11,26,17.30
2010,08,28,11,27,17.50
2010,08,28,11,28,17.60
2010,08,28,11,29,17.60
2010,08,28,11,30,17.70
2010,08,28,11,31,17.70
2010,08,28,11,32,17.70
2010,08,28,11,33,17.70
2010,08,28,11,34,17.70
2010,08,28,11,35,17.70
2010,08,28,11,36,17.70
2010,08,28,11,37,17.70
2010,08,28,11,38,17.70
2010,08,28,11,39,17.60
2010,08,28,11,40,17.50
2010,08,28,11,41,17.50
2010,08,28,11,42,17.50
2010,08,28,11,43,17.50
2010,08,28,11,44,17.50
2010,08,28,11,45,17.50
2010,08,28,11,46,17.50
2010,08,28,11,47,17.60
2010,08,28,11,48,17.70
2010,08,28,11,49,17.80
2010,08,28,11,50,17.90
2010,08,28,11,51,17.90
2010,08,28,11,52,17.90
2010,08,28,11,53,17.90
2010,08,28,11,54,17.90
2010,08,28,11,55,17.90
2010,08,28,11,56,17.80
2010,08,28,11,57,17.80
2010,08,28,11,58,17.70
2010,08,28,11,59,17.60
2010,08,28,12,00,17.70
2010,08,28,12,01,17.70
2010,08,28,12,02,17.80
2010,08,28,12,03,17.80
2010,08,28,12,04,17.80
2010,08,28,12,05,17.90
2010,08,28,12,06,18.00
2010,08,28,12,07,18.00
2010,08,28,12,08,18.00
2010,08,28,12,09,17.90
2010,08,28,12,10,17.90
2010,08,28,12,11,17.90
2010,08,28,12,12,17.90
2010,08,28,12,13,17.90
2010,08,28,12,14,18.00
2010,08,28,12,15,18.10
2010,08,28,12,16,18.10
2010,08,28,12,17,18.10
2010,08,28,12,18,18.10
2010,08,28,12,19,18.00
2010,08,28,12,20,17.90
2010,08,28,12,21,17.80
2010,08,28,12,22,17.90
2010,08,28,12,23,18.00
2010,08,28,12,24,18.00
2010,08,28,12,25,18.10
2010,08,28,12,26,18.00
2010,08,28,12,27,17.80
2010,08,28,12,28,17.70
2010,08,28,12,29,17.60
2010,08,28,12,30,17.50
2010,08,28,12,31,17.50
2010,08,28,12,32,17.50
2010,08,28,12,33,17.50
2010,08,28,12,34,17.40
2010,08,28,12,35,17.40
2010,08,28,12,36,17.50
2010,08,28,12,37,17.60
2010,08,28,12,38,17.60
2010,08,28,12,39,17.60
2010,08,28,12,40,17.60
2010,08,28,12,41,17.50
2010,08,28,12,42,17.60
2010,08,28,12,43,17.60
2010,08,28,12,44,17.70
2010,08,28,12,45,17.70
2010,08,28,12,46,17.70
2010,08,28,12,47,17.70
2010,08,28,12,48,17.80
2010,08,28,12,49,17.70
2010,08,28,12,50,17.70
2010,08,28,12,51,17.70
2010,08,28,12,52,17.80
2010,08,28,12,53,17.80
2010,08,28,12,54,17.80
2010,08,28,12,55,17.80
2010,08,28,12,56,17.80
2010,08,28,12,57,17.80
2010,08,28,12,58,17.80
2010,08,28,12,59,17.90
2010,08,28,13,00,18.00
2010,08,28,13,01,18.10
2010,08,28,13,02,18.20
2010,08,28,13,03,18.30
2010,08,28,13,04,18.30
2010,08,28,13,05,18.40
2010,08,28,13,06,18.30
2010,08,28,13,07,18.20
2010,08,28,13,08,18.10
2010,08,28,13,09,18.00
2010,08,28,13,10,17.90
2010,08,28,13,11,17.80
2010,08,28,13,12,17.90
2010,08,28,13,13,17.90
2010,08,28,13,14,17.90
2010,08,28,13,15,17.90
2010,08,28,13,16,17.90
2010,08,28,13,17,17.90
2010,08,28,13,18,17.70
2010,08,28,13,19,17.60
2010,08,28,13,20,17.60
2010,08,28,13,21,17.80
2010,08,28,13,22,17.90
2010,08,28,13,23,18.10
2010,08,28,13,24,18.20
2010,08,28,13,25,18.10
2010,08,28,13,26,17.90
2010,08,28,13,27,17.90
2010,08,28,13,28,17.90
2010,08,28,13,29,17.90
2010,08,28,13,30,18.00
2010,08,28,13,31,18.10
2010,08,28,13,32,18.20
2010,08,28,13,33,18.20
2010,08,28,13,34,18.10
2010,08,28,13,35,18.00
2010,08,28,13,36,18.00
2010,08,28,13,37,18.10
2010,08,28,13,38,18.10
2010,08,28,13,39,18.10
2010,08,28,13,40,18.20
2010,08,28,13,41,18.10
2010,08,28,13,42,18.00
2010,08,28,13,43,18.00
2010,08,28,13,44,18.10
2010,08,28,13,45,18.20
2010,08,28,13,46,18.20
2010,08,28,13,47,18.20
2010,08,28,13,48,18.20
2010,08,28,13,49,18.20
2010,08,28,13,50,18.20
2010,08,28,13,51,18.30
2010,08,28,13,52,18.20
2010,08,28,13,53,18.20
2010,08,28,13,54,18.20
2010,08,28,13,55,18.10
2010,08,28,13,56,18.00
2010,08,28,13,57,18.00
2010,08,28,13,58,18.00
2010,08,28,13,59,18.00
2010,08,28,14,00,18.10
2010,08,28,14,01,18.20
2010,08,28,14,02,18.10
2010,08,28,14,03,18.10
2010,08,28,14,04,18.00
2010,08,28,14,05,18.00
2010,08,28,14,06,18.00
2010,08,28,14,07,18.20
2010,08,28,14,08,18.30
2010,08,28,14,09,18.30
2010,08,28,14,10,18.30
2010,08,28,14,11,18.40
2010,08,28,14,12,18.30
2010,08,28,14,13,18.30
2010,08,28,14,14,18.30
2010,08,28,14,15,18.30
2010,08,28,14,16,18.20
2010,08,28,14,17,18.20
2010,08,28,14,18,18.20
2010,08,28,14,19,18.30
2010,08,28,14,20,18.40
2010,08,28,14,21,18.40
2010,08,28,14,22,18.40
2010,08,28,14,23,18.60
2010,08,28,14,24,18.60
2010,08,28,14,25,18.70
2010,08,28,14,26,18.70
2010,08,28,14,27,18.80
2010,08,28,14,28,18.80
2010,08,28,14,29,18.80
2010,08,28,14,30,18.90
2010,08,28,14,31,19.00
2010,08,28,14,32,19.00
2010,08,28,14,33,19.00
2010,08,28,14,34,19.00
2010,08,28,14,35,19.00
2010,08,28,14,36,18.90
2010,08,28,14,37,18.90
2010,08,28,14,38,18.90
2010,08,28,14,39,19.10
2010,08,28,14,40,19.20
2010,08,28,14,41,19.30
2010,08,28,14,42,19.30
2010,08,28,14,43,19.10
2010,08,28,14,44,19.00
2010,08,28,14,45,19.00
2010,08,28,14,46,18.90
2010,08,28,14,47,18.90
2010,08,28,14,48,18.80
2010,08,28,14,49,18.70
2010,08,28,14,50,18.70
2010,08,28,14,51,18.80
2010,08,28,14,52,18.90
2010,08,28,14,53,18.90
2010,08,28,14,54,18.90
2010,08,28,14,55,18.80
2010,08,28,14,56,18.90
2010,08,28,14,57,19.00
2010,08,28,14,58,19.00
2010,08,28,14,59,19.00
2010,08,28,15,00,19.00
2010,08,28,15,01,19.00
2010,08,28,15,02,19.10
2010,08,28,15,03,19.20
2010,08,28,15,04,19.30
2010,08,28,15,05,19.40
2010,08,28,15,06,19.40
2010,08,28,15,07,19.50
2010,08,28,15,08,19.50
2010,08,28,15,09,19.30
2010,08,28,15,10,19.10
2010,08,28,15,11,19.00
2010,08,28,15,12,19.00
2010,08,28,15,13,18.90
2010,08,28,15,14,18.90
2010,08,28,15,15,19.00
2010,08,28,15,16,19.00
2010,08,28,15,17,19.10
2010,08,28,15,18,19.20
2010,08,28,15,19,19.20
2010,08,28,15,20,19.30
2010,08,28,15,21,19.30
2010,08,28,15,22,19.30
2010,08,28,15,23,19.20
2010,08,28,15,24,19.30
2010,08,28,15,25,19.30
2010,08,28,15,26,19.40
2010,08,28,15,27,19.50
2010,08,28,15,28,19.60
2010,08,28,15,29,19.60
2010,08,28,15,30,19.60
2010,08,28,15,31,19.50
2010,08,28,15,32,19.50
2010,08,28,15,33,19.50
2010,08,28,15,34,19.50
2010,08,28,15,35,19.50
2010,08,28,15,36,19.60
2010,08,28,15,37,19.60
2010,08,28,15,38,19.60
2010,08,28,15,39,19.60
2010,08,28,15,40,19.70
2010,08,28,15,41,19.80
2010,08,28,15,42,19.80
2010,08,28,15,43,19.80
2010,08,28,15,44,19.80
2010,08,28,15,45,19.80
2010,08,28,15,46,19.80
2010,08,28,15,47,19.80
2010,08,28,15,48,19.90
2010,08,28,15,49,19.90
2010,08,28,15,50,19.80
2010,08,28,15,51,19.80
2010,08,28,15,52,19.80
2010,08,28,15,53,19.80
2010,08,28,15,54,19.90
2010,08,28,15,55,19.90
2010,08,28,15,56,19.90
2010,08,28,15,57,19.90
2010,08,28,15,58,19.90
2010,08,28,15,59,19.90
2010,08,28,16,00,19.90
2010,08,28,16,01,20.00
2010,08,28,16,02,20.10
2010,08,28,16,03,20.00
2010,08,28,16,04,19.90
2010,08,28,16,05,19.80
2010,08,28,16,06,19.80
2010,08,28,16,07,19.70
2010,08,28,16,08,19.60
2010,08,28,16,09,19.60
2010,08,28,16,10,19.60
2010,08,28,16,11,19.60
2010,08,28,16,12,19.60
2010,08,28,16,13,19.70
2010,08,28,16,14,19.60
2010,08,28,16,15,19.60
2010,08,28,16,16,19.60
2010,08,28,16,17,19.60
2010,08,28,16,18,19.60
2010,08,28,16,19,19.70
2010,08,28,16,20,19.80
2010,08,28,16,21,19.80
2010,08,28,16,22,19.80
2010,08,28,16,23,19.80
2010,08,28,16,24,19.90
2010,08,28,16,25,19.90
2010,08,28,16,26,20.00
2010,08,28,16,27,20.10
2010,08,28,16,28,20.20
2010,08,28,16,29,20.30
2010,08,28,16,30,20.30
2010,08,28,16,31,20.30
2010,08,28,16,32,20.30
2010,08,28,16,33,20.30
2010,08,28,16,34,20.30
2010,08,28,16,35,20.30
2010,08,28,16,36,20.30
2010,08,28,16,37,20.30
2010,08,28,16,38,20.30
2010,08,28,16,39,20.30
2010,08,28,16,40,20.20
2010,08,28,16,41,20.10
2010,08,28,16,42,20.00
2010,08,28,16,43,19.90
2010,08,28,16,44,19.80
2010,08,28,16,45,19.70
2010,08,28,16,46,19.60
2010,08,28,16,47,19.50
2010,08,28,16,48,19.30
2010,08,28,16,49,19.20
2010,08,28,16,50,19.10
2010,08,28,16,51,19.10
2010,08,28,16,52,19.10
2010,08,28,16,53,19.10
2010,08,28,16,54,19.10
2010,08,28,16,55,19.10
2010,08,28,16,56,19.10
2010,08,28,16,57,19.10
2010,08,28,16,58,19.00
2010,08,28,16,59,19.00
2010,08,28,17,00,19.00
2010,08,28,17,01,19.10
2010,08,28,17,02,19.20
2010,08,28,17,03,19.20
2010,08,28,17,04,19.20
2010,08,28,17,05,19.30
2010,08,28,17,06,19.40
2010,08,28,17,07,19.40
2010,08,28,17,08,19.50
2010,08,28,17,09,19.60
2010,08,28,17,10,19.50
2010,08,28,17,11,19.40
2010,08,28,17,12,19.40
2010,08,28,17,13,19.50
2010,08,28,17,14,19.50
2010,08,28,17,15,19.60
2010,08,28,17,16,19.60
2010,08,28,17,17,19.70
2010,08,28,17,18,19.80
2010,08,28,17,19,19.80
2010,08,28,17,20,19.80
2010,08,28,17,21,19.80
2010,08,28,17,22,19.70
2010,08,28,17,23,19.60
2010,08,28,17,24,19.50
2010,08,28,17,25,19.40
2010,08,28,17,26,19.20
2010,08,28,17,27,19.10
2010,08,28,17,28,19.00
2010,08,28,17,29,19.00
2010,08,28,17,30,19.00
2010,08,28,17,31,19.10
2010,08,28,17,32,19.20
2010,08,28,17,33,19.20
2010,08,28,17,34,19.10
2010,08,28,17,35,19.10
2010,08,28,17,36,19.10
2010,08,28,17,37,19.10
2010,08,28,17,38,19.20
2010,08,28,17,39,19.30
2010,08,28,17,40,19.50
2010,08,28,17,41,19.50
2010,08,28,17,42,19.60